When you browse on this site, cookies collect data to enhance your experience and personalize the content and advertising you see.
Visit our Privacy Policy to learn more. By continuing to use the site, you agree to this use of cookies and data.
  • In Deutschland
  • Länderverzeichnis
  • Für 7 Tage
  • Wassertemperatur
  • Wetterkarte
  • Widgets
  • user-avatar
    Anmelden

    Stündliche Wetter Shkoder

    Heute, 11 Dezember, Mittwoch

    Zeit Temperatur Niederschläge Wind Luftdruck Luftfeuchtigkeit
    00:00 +7°C° 0.1 mm 4 m/S 736 mmHg 82%
    01:00 +7°C° 0 mm 5 m/S 736 mmHg 80%
    02:00 +7°C° 0 mm 5 m/S 736 mmHg 80%
    03:00 +7°C° 0 mm 5 m/S 736 mmHg 80%
    04:00 +7°C° 0 mm 5 m/S 735 mmHg 81%
    05:00 +6°C° 0.1 mm 5 m/S 735 mmHg 81%
    06:00 +6°C° 0.1 mm 4 m/S 736 mmHg 82%
    07:00 +6°C° 0.1 mm 4 m/S 736 mmHg 83%
    08:00 +7°C° 0 mm 4 m/S 736 mmHg 80%
    09:00 +7°C° 0 mm 4 m/S 736 mmHg 78%
    10:00 +7°C° 0 mm 4 m/S 736 mmHg 76%
    11:00 +8°C° 0 mm 4 m/S 736 mmHg 75%
    12:00 +8°C° 0 mm 5 m/S 735 mmHg 73%
    13:00 +8°C° 0 mm 5 m/S 735 mmHg 72%
    14:00 +8°C° 0 mm 4 m/S 735 mmHg 73%
    15:00 +7°C° 0 mm 4 m/S 735 mmHg 75%
    16:00 +7°C° 0 mm 3 m/S 735 mmHg 77%
    17:00 +7°C° 0 mm 3 m/S 735 mmHg 79%
    18:00 +5°C° 0 mm 3 m/S 735 mmHg 80%
    19:00 +5°C° 0 mm 3 m/S 735 mmHg 82%
    20:00 +5°C° 0 mm 3 m/S 735 mmHg 82%
    21:00 +5°C° 0 mm 3 m/S 735 mmHg 82%
    22:00 +5°C° 0 mm 3 m/S 734 mmHg 82%
    23:00 +5°C° 0 mm 2 m/S 734 mmHg 82%

    Morgen, 12 Dezember, Donnerstag

    Zeit Temperatur Niederschläge Wind Luftdruck Luftfeuchtigkeit
    00:00 +5°C° 0 mm 2 m/S 734 mmHg 82%
    01:00 +5°C° 0 mm 2 m/S 734 mmHg 83%
    02:00 +5°C° 0 mm 2 m/S 733 mmHg 83%
    03:00 +5°C° 0 mm 2 m/S 733 mmHg 83%
    04:00 +5°C° 0 mm 2 m/S 732 mmHg 83%
    05:00 +5°C° 0 mm 2 m/S 732 mmHg 82%
    06:00 +5°C° 0 mm 2 m/S 732 mmHg 82%
    07:00 +6°C° 0 mm 1 m/S 732 mmHg 81%
    08:00 +7°C° 0 mm 1 m/S 732 mmHg 79%
    09:00 +8°C° 0 mm 1 m/S 732 mmHg 76%
    10:00 +9°C° 0 mm 1 m/S 732 mmHg 73%
    11:00 +10°C° 0 mm 1 m/S 732 mmHg 73%
    12:00 +10°C° 0 mm 1 m/S 731 mmHg 72%
    13:00 +11°C° 0 mm 1 m/S 731 mmHg 72%
    14:00 +10°C° 0.3 mm 1 m/S 731 mmHg 77%
    15:00 +9°C° 0.3 mm 1 m/S 731 mmHg 83%
    16:00 +9°C° 0.3 mm 1 m/S 731 mmHg 88%
    17:00 +9°C° 0.3 mm 1 m/S 731 mmHg 89%
    18:00 +9°C° 0.3 mm 1 m/S 731 mmHg 90%
    19:00 +8°C° 0.3 mm 2 m/S 731 mmHg 90%
    20:00 +8°C° 0.6 mm 2 m/S 730 mmHg 91%
    21:00 +8°C° 0.6 mm 2 m/S 730 mmHg 92%
    22:00 +8°C° 0.6 mm 2 m/S 730 mmHg 93%
    23:00 +8°C° 1.8 mm 2 m/S 730 mmHg 93%

    übermorgen, 13 Dezember, Freitag

    Zeit Temperatur Niederschläge Wind Luftdruck Luftfeuchtigkeit
    00:00 +8°C° 1.8 mm 2 m/S 729 mmHg 93%
    01:00 +8°C° 1.8 mm 2 m/S 729 mmHg 93%
    02:00 +8°C° 1.4 mm 2 m/S 729 mmHg 93%
    03:00 +7°C° 1.4 mm 3 m/S 729 mmHg 93%
    04:00 +7°C° 1.4 mm 3 m/S 728 mmHg 94%
    05:00 +7°C° 1.1 mm 3 m/S 729 mmHg 93%
    06:00 +7°C° 1.1 mm 2 m/S 729 mmHg 93%
    07:00 +7°C° 1.1 mm 2 m/S 729 mmHg 92%
    08:00 +8°C° 0.7 mm 2 m/S 729 mmHg 92%
    09:00 +8°C° 0.7 mm 2 m/S 729 mmHg 91%
    10:00 +8°C° 0.7 mm 3 m/S 728 mmHg 90%
    11:00 +8°C° 0.7 mm 3 m/S 728 mmHg 87%
    12:00 +9°C° 0.7 mm 3 m/S 728 mmHg 84%
    13:00 +9°C° 0.7 mm 2 m/S 727 mmHg 81%
    14:00 +9°C° 0.4 mm 3 m/S 727 mmHg 84%
    15:00 +8°C° 0.4 mm 3 m/S 726 mmHg 87%
    16:00 +8°C° 0.4 mm 3 m/S 726 mmHg 90%
    17:00 +8°C° 0.2 mm 3 m/S 726 mmHg 89%
    18:00 +8°C° 0.2 mm 3 m/S 725 mmHg 88%
    19:00 +8°C° 0.2 mm 3 m/S 725 mmHg 87%
    20:00 +8°C° 0.4 mm 3 m/S 724 mmHg 87%
    21:00 +8°C° 0.4 mm 3 m/S 724 mmHg 87%
    22:00 +7°C° 0.4 mm 4 m/S 723 mmHg 87%
    23:00 +8°C° 0.9 mm 3 m/S 723 mmHg 88%

    14 Dezember, Samstag

    Zeit Temperatur Niederschläge Wind Luftdruck Luftfeuchtigkeit
    00:00 +8°C° 0.9 mm 3 m/S 722 mmHg 89%
    01:00 +8°C° 0.9 mm 3 m/S 721 mmHg 89%
    02:00 +7°C° 2.3 mm 3 m/S 721 mmHg 90%
    03:00 +7°C° 2.3 mm 3 m/S 721 mmHg 91%
    04:00 +7°C° 2.3 mm 3 m/S 721 mmHg 92%
    05:00 +7°C° 1.4 mm 3 m/S 722 mmHg 91%
    06:00 +7°C° 1.4 mm 3 m/S 723 mmHg 90%
    07:00 +7°C° 1.4 mm 3 m/S 723 mmHg 88%
    08:00 +8°C° 0 mm 3 m/S 724 mmHg 85%
    09:00 +9°C° 0 mm 3 m/S 725 mmHg 82%
    10:00 +9°C° 0 mm 3 m/S 726 mmHg 79%
    11:00 +10°C° 0 mm 3 m/S 727 mmHg 77%
    12:00 +11°C° 0 mm 3 m/S 728 mmHg 75%
    13:00 +11°C° 0 mm 3 m/S 729 mmHg 73%
    14:00 +11°C° 0 mm 3 m/S 730 mmHg 75%
    15:00 +10°C° 0 mm 3 m/S 731 mmHg 77%
    16:00 +9°C° 0 mm 3 m/S 732 mmHg 79%
    17:00 +9°C° 0 mm 3 m/S 733 mmHg 79%
    18:00 +9°C° 0 mm 3 m/S 734 mmHg 79%
    19:00 +8°C° 0 mm 3 m/S 735 mmHg 80%
    20:00 +8°C° 0 mm 3 m/S 736 mmHg 79%
    21:00 +8°C° 0 mm 2 m/S 737 mmHg 79%
    22:00 +8°C° 0 mm 2 m/S 737 mmHg 79%
    23:00 +8°C° 0 mm 2 m/S 738 mmHg 79%

    15 Dezember, Sonntag

    Zeit Temperatur Niederschläge Wind Luftdruck Luftfeuchtigkeit
    00:00 +7°C° 0 mm 2 m/S 738 mmHg 79%
    01:00 +7°C° 0 mm 2 m/S 738 mmHg 78%
    02:00 +7°C° 0 mm 2 m/S 739 mmHg 77%
    03:00 +7°C° 0 mm 2 m/S 739 mmHg 77%
    04:00 +7°C° 0 mm 2 m/S 739 mmHg 76%
    05:00 +7°C° 0 mm 2 m/S 739 mmHg 74%
    06:00 +7°C° 0 mm 2 m/S 740 mmHg 73%
    07:00 +7°C° 0 mm 2 m/S 740 mmHg 71%
    08:00 +10°C° 0 mm 1 m/S 741 mmHg 70%
    09:00 +11°C° 0 mm 1 m/S 741 mmHg 69%
    10:00 +13°C° 0 mm 1 m/S 741 mmHg 68%
    11:00 +13°C° 0 mm 1 m/S 741 mmHg 67%
    12:00 +14°C° 0 mm 1 m/S 741 mmHg 66%
    13:00 +15°C° 0 mm 1 m/S 741 mmHg 65%
    14:00 +14°C° 0 mm 1 m/S 741 mmHg 69%
    15:00 +13°C° 0 mm 1 m/S 742 mmHg 72%
    16:00 +12°C° 0 mm 1 m/S 742 mmHg 76%
    17:00 +12°C° 0 mm 1 m/S 743 mmHg 77%
    18:00 +11°C° 0 mm 1 m/S 743 mmHg 78%
    19:00 +11°C° 0 mm 1 m/S 743 mmHg 79%
    20:00 +11°C° 0 mm 1 m/S 744 mmHg 80%
    21:00 +11°C° 0 mm 1 m/S 744 mmHg 82%
    22:00 +11°C° 0 mm 1 m/S 744 mmHg 84%
    23:00 +11°C° 0 mm 1 m/S 745 mmHg 85%

    16 Dezember, Montag

    Zeit Temperatur Niederschläge Wind Luftdruck Luftfeuchtigkeit
    00:00 +11°C° 0 mm 1 m/S 745 mmHg 86%
    01:00 +11°C° 0 mm 1 m/S 745 mmHg 87%
    02:00 +11°C° 0 mm 1 m/S 745 mmHg 87%
    03:00 +11°C° 0 mm 1 m/S 745 mmHg 88%
    04:00 +10°C° 0 mm 1 m/S 745 mmHg 88%
    05:00 +10°C° 0 mm 1 m/S 745 mmHg 88%
    06:00 +10°C° 0 mm 1 m/S 745 mmHg 87%
    07:00 +10°C° 0 mm 1 m/S 746 mmHg 87%
    08:00 +11°C° 0 mm 1 m/S 746 mmHg 85%
    09:00 +12°C° 0 mm 1 m/S 746 mmHg 82%
    10:00 +13°C° 0 mm 1 m/S 746 mmHg 80%
    11:00 +14°C° 0 mm 1 m/S 746 mmHg 77%
    12:00 +15°C° 0 mm 1 m/S 745 mmHg 75%
    13:00 +15°C° 0 mm 1 m/S 745 mmHg 72%
    14:00 +14°C° 0 mm 1 m/S 745 mmHg 76%
    15:00 +13°C° 0 mm 1 m/S 745 mmHg 79%
    16:00 +12°C° 0 mm 1 m/S 745 mmHg 83%
    17:00 +12°C° 0 mm 1 m/S 745 mmHg 83%
    18:00 +11°C° 0 mm 1 m/S 745 mmHg 83%
    19:00 +11°C° 0 mm 1 m/S 745 mmHg 82%
    20:00 +11°C° 0 mm 1 m/S 745 mmHg 83%
    21:00 +11°C° 0 mm 1 m/S 745 mmHg 84%
    22:00 +11°C° 0 mm 1 m/S 745 mmHg 84%
    23:00 +11°C° 0 mm 1 m/S 745 mmHg 85%
    Mehr zeigen